QPF
0.00 0.00 0.00 0.00 0.00 0.00 0.00 0.00 0.00 0.00 0.00 0.00 0.00 0.00 0.00 0.00 0.00 0.00 0.00 0.00 0.00 0.00 0.00 0.00 0.00 0.00 0.00 0.00 0.00 0.00 0.00 0.00 0.02
0.00 0.00 0.00 0.00 0.00 0.00 0.00 0.00 0.00 0.00 0.00 0.00 0.00 0.00 0.00 0.00 0.00 0.00 0.00 0.00 0.00 0.00 0.00 0.00 0.00 0.00 0.00 0.00 0.00 0.00 0.00 0.00 0.00
0.00 0.00 0.00 0.00 0.00 0.00 0.00 0.00 0.00 0.00 0.00 0.00 0.00 0.00 0.00 0.00 0.00 0.00 0.00 0.00 0.00 0.00 0.00 0.00 0.00 0.00 0.00 0.00 0.00 0.00 0.00 0.00 0.00
0.00 0.00 0.00 0.00 0.00 0.00 0.00 0.00 0.00 0.00 0.00 0.00 0.00 0.00 0.00 0.00 0.00 0.00 0.00 0.00 0.00 0.00 0.00 0.00 0.00 0.00 0.00 0.00 0.01 0.01 0.00 0.00 0.00
0.00 0.00 0.00 0.00 0.00 0.00 0.00 0.00 0.00 0.00 0.00 0.00 0.00 0.00 0.00 0.00 0.00 0.00 0.01 0.01 0.03 0.02 0.00 0.00 0.00 0.00 0.00 0.00 0.00 0.01 0.01 0.01 0.00
0.00 0.00 0.00 0.00 0.00 0.00 0.00 0.00 0.00 0.00 0.00 0.00 0.00 0.00 0.00 0.00 0.00 0.00 0.01 0.02 0.01 0.00 0.00 0.00 0.00 0.01 0.00 0.00 0.00 0.00 0.00 0.00 0.01
0.00 0.00 0.00 0.00 0.00 0.00 0.00 0.00 0.00 0.00 0.00 0.00 0.00 0.00 0.00 0.00 0.00 0.00 0.00 0.00 0.00 0.00 0.00 0.00 0.01 0.02 0.01 0.00 0.00 0.01 0.02 0.03 0.02
0.00 0.00 0.00 0.00 0.00 0.00 0.00 0.00 0.00 0.00 0.00 0.00 0.00 0.00 0.00 0.00 0.00 0.00 0.02 0.04 0.02 0.00 0.01 0.02 0.02 0.01 0.01 0.03 0.04 0.04 0.02 0.01 0.00
0.00 0.00 0.00 0.00 0.00 0.00 0.00 0.00 0.00 0.00 0.00 0.00 0.00 0.00 0.00 0.00 0.00 0.00 0.00 0.03 0.04 0.01 0.00 0.00 0.00 0.02 0.04 0.02 0.00 0.00 0.00 0.00 0.00
0.00 0.00 0.00 0.00 0.00 0.00 0.00 0.00 0.00 0.00 0.00 0.00 0.00 0.00 0.00 0.00 0.00 0.00 0.00 0.00 0.04 0.04 0.02 0.03 0.04 0.02 0.00 0.00 0.00 0.00 0.00 0.00 0.00
0.00 0.00 0.00 0.00 0.00 0.00 0.00 0.00 0.00 0.00 0.00 0.00 0.00 0.00 0.00 0.00 0.00 0.00 0.00 0.00 0.01 0.07 0.07 0.05 0.02 0.01 0.00 0.00 0.00 0.00 0.00 0.00 0.00
0.00 0.00 0.00 0.00 0.00 0.00 0.00 0.00 0.00 0.00 0.00 0.00 0.00 0.00 0.00 0.00 0.00 0.00 0.00 0.00 0.00 0.02 0.04 0.02 0.01 0.00 0.00 0.00 0.00 0.00 0.00 0.00 0.00
0.00 0.00 0.00 0.00 0.00 0.00 0.00 0.00 0.00 0.00 0.00 0.00 0.00 0.00 0.00 0.00 0.00 0.00 0.00 0.00 0.00 0.00 0.00 0.00 0.00 0.00 0.00 0.00 0.00 0.00 0.00 0.00 0.00
0.00 0.00 0.00 0.00 0.00 0.00 0.00 0.00 0.00 0.00 0.00 0.00 0.00 0.00 0.00 0.00 0.00 0.00 0.00 0.00 0.00 0.00 0.00 0.00 0.00 0.01 0.00 0.00 0.00 0.00 0.00 0.00 0.00
0.00 0.00 0.00 0.00 0.00 0.00 0.00 0.00 0.00 0.00 0.00 0.00 0.00 0.00 0.00 0.00 0.00 0.00 0.00 0.00 0.00 0.00 0.00 0.00 0.00 0.00 0.00 0.00 0.00 0.00 0.00 0.00 0.01
0.00 0.00 0.00 0.00 0.00 0.00 0.00 0.00 0.00 0.00 0.00 0.00 0.00 0.00 0.00 0.00 0.00 0.00 0.00 0.00 0.00 0.00 0.00 0.00 0.00 0.00 0.00 0.00 0.00 0.00 0.00 0.01 0.01
0.00 0.00 0.00 0.00 0.00 0.00 0.00 0.00 0.00 0.00 0.00 0.00 0.00 0.00 0.00 0.00 0.00 0.00 0.00 0.00 0.00 0.00 0.00 0.00 0.00 0.00 0.00 0.00 0.00 0.00 0.00 0.00 0.00
0.00 0.00 0.00 0.00 0.00 0.00 0.00 0.00 0.00 0.00 0.00 0.00 0.00 0.00 0.00 0.00 0.00 0.00 0.00 0.00 0.00 0.00 0.00 0.00 0.00 0.00 0.00 0.00 0.00 0.00 0.00 0.00 0.00
0.00 0.00 0.00 0.00 0.00 0.00 0.00 0.00 0.00 0.00 0.00 0.00 0.00 0.00 0.00 0.00 0.00 0.00 0.00 0.00 0.00 0.00 0.00 0.00 0.00 0.00 0.00 0.00 0.00 0.00 0.00 0.00 0.00
0.00 0.00 0.00 0.00 0.00 0.00 0.00 0.00 0.00 0.00 0.00 0.00 0.00 0.00 0.00 0.00 0.00 0.00 0.00 0.00 0.00 0.00 0.00 0.00 0.00 0.00 0.00 0.00 0.00 0.00 0.00 0.00 0.00
MSLP
1017.20 1017.51 1017.67 1017.76 1017.94 1018.13 1018.31 1018.47 1018.67 1019.03 1019.35 1019.56 1019.79 1020.03 1020.29 1020.50 1020.62 1020.53 1020.35 1020.24 1020.18 1020.27 1020.44 1020.52 1020.55 1020.58 1020.51 1020.48 1020.59 1020.52 1020.41 1020.34 1020.34
1017.64 1017.83 1018.00 1018.15 1018.31 1018.51 1018.74 1018.88 1019.13 1019.41 1019.60 1019.87 1020.15 1020.38 1020.59 1020.82 1020.97 1020.84 1020.64 1020.35 1020.37 1020.61 1020.69 1020.73 1020.71 1020.82 1020.92 1021.03 1021.10 1020.95 1020.85 1020.86 1020.87
1017.89 1018.15 1018.32 1018.53 1018.69 1018.84 1019.01 1019.16 1019.45 1019.83 1020.05 1020.25 1020.46 1020.68 1020.90 1021.11 1021.14 1021.06 1020.86 1020.70 1020.71 1020.68 1020.87 1020.89 1021.06 1021.25 1021.25 1021.27 1021.37 1021.32 1021.20 1021.33 1021.46
1018.08 1018.39 1018.59 1018.87 1019.07 1019.13 1019.25 1019.48 1019.78 1020.10 1020.40 1020.70 1020.91 1021.10 1021.28 1021.41 1021.26 1021.27 1021.19 1020.93 1020.90 1021.19 1021.30 1021.25 1021.34 1021.50 1021.75 1021.81 1021.73 1021.75 1021.76 1021.83 1022.03
1018.47 1018.74 1018.93 1019.07 1019.34 1019.47 1019.71 1019.96 1020.19 1020.54 1020.80 1021.18 1021.32 1021.40 1021.56 1021.70 1021.74 1021.56 1021.38 1021.31 1021.31 1021.49 1021.57 1021.65 1021.81 1021.94 1022.10 1022.12 1022.24 1022.25 1022.37 1022.47 1022.46
1018.92 1019.20 1019.38 1019.47 1019.58 1019.73 1020.03 1020.36 1020.63 1020.97 1021.28 1021.55 1021.82 1021.91 1022.09 1021.98 1022.02 1021.82 1021.74 1021.72 1021.86 1021.95 1022.05 1022.00 1022.08 1022.12 1022.34 1022.44 1022.51 1022.67 1022.84 1022.91 1022.98
1019.29 1019.53 1019.64 1019.73 1019.93 1020.18 1020.44 1020.71 1021.30 1021.68 1021.95 1022.15 1022.32 1022.43 1022.42 1022.41 1022.42 1022.35 1022.10 1022.04 1022.22 1022.34 1022.39 1022.48 1022.44 1022.55 1022.80 1022.92 1022.94 1023.18 1023.42 1023.45 1023.51
1019.66 1019.98 1020.26 1020.31 1020.42 1020.89 1021.19 1021.63 1021.96 1022.36 1022.53 1022.77 1023.02 1023.03 1022.87 1022.75 1022.72 1022.81 1022.57 1022.25 1022.28 1022.53 1022.71 1022.79 1022.96 1023.06 1023.27 1023.53 1023.68 1023.59 1023.73 1023.93 1024.13
1020.11 1020.41 1020.77 1020.99 1021.09 1021.35 1021.67 1022.11 1022.38 1022.71 1023.07 1023.09 1023.50 1023.65 1023.60 1023.44 1023.24 1023.35 1023.16 1022.90 1022.66 1022.79 1023.00 1023.18 1023.40 1023.69 1023.70 1023.97 1024.22 1024.36 1024.35 1024.36 1024.48
1020.25 1020.65 1020.96 1021.39 1021.44 1021.64 1022.08 1022.36 1022.69 1022.94 1023.43 1023.69 1023.77 1024.16 1024.23 1024.17 1024.01 1023.87 1023.73 1023.53 1023.24 1023.14 1023.20 1023.55 1023.71 1024.00 1024.36 1024.57 1024.88 1025.00 1025.02 1024.90 1024.81
1020.21 1020.65 1020.99 1021.33 1021.54 1021.83 1022.12 1022.52 1022.99 1023.48 1023.60 1024.27 1024.37 1024.61 1024.67 1024.65 1024.70 1024.55 1024.44 1024.23 1023.94 1023.74 1023.88 1023.90 1024.22 1024.50 1024.81 1025.25 1025.46 1025.43 1025.48 1025.59 1025.45
1020.09 1020.58 1021.06 1021.28 1021.65 1022.01 1022.42 1023.07 1023.39 1023.88 1024.21 1024.72 1025.05 1025.16 1025.30 1025.35 1025.31 1025.42 1025.29 1025.22 1024.85 1024.49 1024.48 1024.59 1024.92 1025.04 1025.36 1025.66 1025.88 1026.06 1026.08 1026.12 1026.20
1019.95 1020.43 1021.03 1021.28 1021.77 1022.16 1022.62 1023.16 1023.67 1024.19 1024.60 1025.11 1025.52 1025.67 1025.80 1025.86 1026.06 1025.85 1025.87 1025.91 1025.84 1025.60 1025.24 1025.05 1025.40 1025.81 1025.94 1026.11 1026.33 1026.42 1026.53 1026.75 1026.73
1019.82 1020.29 1020.83 1021.28 1021.54 1022.22 1022.61 1023.57 1023.72 1024.30 1024.95 1025.28 1025.96 1026.00 1026.25 1026.21 1026.41 1026.40 1026.45 1026.49 1026.46 1026.35 1026.28 1026.11 1026.12 1026.35 1026.46 1026.52 1026.65 1026.88 1027.10 1027.16 1027.23
1019.70 1020.28 1020.76 1021.24 1021.52 1022.20 1022.84 1023.39 1024.14 1024.48 1024.83 1025.32 1026.31 1026.48 1026.58 1026.57 1026.82 1026.82 1027.04 1027.14 1027.14 1027.18 1027.08 1027.06 1026.84 1026.88 1026.99 1027.15 1027.17 1027.16 1027.43 1027.47 1027.50
1019.41 1019.81 1020.65 1021.07 1021.71 1022.14 1022.67 1023.53 1024.10 1025.14 1025.22 1025.63 1026.84 1026.96 1027.05 1026.97 1027.25 1027.29 1027.46 1027.64 1027.72 1027.79 1027.83 1027.85 1027.95 1028.11 1027.91 1027.76 1027.65 1027.65 1027.75 1027.83 1027.87
1019.21 1019.48 1020.32 1020.92 1021.75 1022.15 1022.72 1022.97 1024.05 1025.01 1025.05 1025.42 1026.60 1027.49 1027.62 1027.61 1027.73 1027.72 1027.82 1028.12 1028.16 1028.30 1028.51 1028.50 1028.58 1028.71 1028.84 1028.70 1028.50 1028.40 1028.31 1028.23 1028.29
1018.83 1019.35 1020.06 1020.87 1021.41 1021.96 1022.52 1022.77 1023.22 1024.27 1024.83 1024.86 1025.53 1027.10 1027.21 1027.70 1028.12 1028.29 1028.31 1028.40 1028.49 1028.71 1028.92 1029.00 1029.12 1029.22 1029.23 1029.43 1029.23 1028.97 1028.72 1028.44 1028.57
1018.56 1019.29 1019.83 1020.89 1021.25 1021.78 1022.28 1022.62 1023.13 1023.63 1024.71 1025.25 1025.41 1025.32 1026.06 1027.10 1028.54 1028.73 1028.87 1029.05 1028.95 1029.03 1029.20 1029.48 1029.44 1029.63 1029.58 1029.52 1029.51 1029.30 1029.18 1028.91 1028.63
1018.18 1018.74 1019.38 1020.31 1020.96 1021.47 1021.90 1022.51 1022.88 1023.27 1023.89 1024.52 1025.27 1025.47 1026.03 1026.11 1027.05 1028.46 1029.10 1029.33 1029.51 1029.52 1029.55 1029.66 1029.65 1029.61 1029.81 1029.66 1029.67 1029.53 1029.37 1029.41 1029.04
Thickness
5725 5725 5725 5726 5725 5724 5722 5721 5719 5715 5712 5710 5707 5705 5702 5700 5698 5697 5696 5695 5693 5690 5687 5685 5683 5681 5680 5679 5676 5675 5674 5673 5671
5720 5721 5720 5721 5721 5719 5717 5716 5714 5712 5710 5707 5704 5702 5700 5698 5695 5695 5695 5694 5692 5688 5685 5683 5681 5678 5676 5674 5671 5671 5670 5668 5666
5716 5716 5716 5715 5716 5714 5713 5713 5710 5707 5705 5703 5701 5699 5696 5694 5694 5692 5693 5691 5689 5687 5684 5681 5678 5675 5673 5671 5669 5667 5666 5664 5661
5713 5712 5711 5710 5710 5710 5709 5708 5705 5703 5701 5698 5697 5695 5693 5691 5691 5689 5688 5688 5687 5683 5681 5679 5676 5673 5669 5667 5665 5664 5662 5659 5656
5707 5707 5706 5707 5705 5705 5704 5702 5701 5698 5697 5693 5692 5692 5691 5688 5686 5685 5685 5683 5682 5680 5678 5676 5673 5670 5667 5664 5661 5659 5656 5654 5652
5703 5701 5701 5702 5701 5701 5700 5697 5696 5694 5691 5690 5688 5688 5686 5686 5684 5682 5680 5679 5676 5675 5673 5673 5671 5668 5665 5662 5660 5656 5652 5650 5648
5698 5697 5697 5698 5697 5696 5696 5693 5689 5689 5688 5686 5684 5683 5682 5681 5678 5677 5676 5675 5672 5670 5669 5667 5667 5665 5661 5658 5656 5652 5648 5645 5643
5693 5693 5692 5694 5694 5692 5691 5688 5686 5682 5681 5680 5677 5677 5678 5678 5675 5672 5672 5672 5672 5668 5665 5664 5661 5659 5657 5652 5649 5649 5646 5642 5638
5687 5688 5687 5687 5688 5688 5687 5684 5683 5679 5675 5676 5672 5671 5672 5673 5673 5669 5668 5667 5667 5665 5662 5659 5656 5652 5651 5647 5644 5641 5640 5639 5636
5683 5683 5682 5681 5683 5683 5681 5680 5678 5677 5671 5668 5668 5665 5665 5665 5665 5665 5663 5663 5662 5661 5660 5656 5653 5648 5643 5640 5636 5634 5632 5632 5632
5680 5679 5679 5678 5678 5678 5677 5675 5672 5669 5669 5662 5661 5660 5659 5659 5658 5658 5657 5656 5656 5655 5652 5651 5647 5643 5639 5634 5631 5629 5627 5624 5624
5677 5676 5674 5675 5673 5672 5671 5666 5666 5663 5660 5658 5654 5653 5651 5651 5652 5650 5650 5648 5649 5648 5645 5643 5639 5636 5632 5629 5625 5622 5620 5617 5615
5673 5672 5670 5670 5668 5667 5664 5661 5658 5656 5654 5652 5647 5646 5644 5644 5642 5643 5642 5640 5639 5638 5638 5636 5631 5627 5625 5622 5619 5616 5612 5609 5606
5669 5668 5667 5666 5666 5662 5659 5654 5654 5652 5647 5646 5640 5639 5637 5636 5634 5635 5634 5632 5630 5630 5627 5626 5622 5618 5616 5614 5612 5608 5604 5602 5599
5664 5663 5661 5660 5660 5657 5652 5650 5645 5645 5643 5641 5632 5631 5630 5630 5627 5627 5623 5622 5620 5619 5618 5617 5614 5611 5608 5605 5603 5601 5597 5594 5591
5657 5659 5654 5653 5651 5651 5648 5642 5639 5631 5633 5630 5621 5620 5620 5620 5617 5617 5614 5611 5610 5608 5607 5606 5603 5599 5596 5595 5593 5591 5588 5585 5582
5651 5654 5649 5647 5643 5642 5639 5639 5632 5625 5626 5625 5615 5609 5609 5608 5606 5606 5604 5602 5600 5598 5595 5594 5592 5589 5584 5582 5581 5579 5577 5575 5572
5646 5646 5643 5639 5637 5634 5632 5632 5629 5624 5619 5620 5616 5601 5603 5598 5596 5594 5593 5592 5590 5587 5584 5582 5580 5577 5575 5569 5568 5568 5567 5566 5562
5638 5635 5634 5627 5629 5627 5624 5623 5622 5619 5611 5606 5606 5608 5603 5595 5585 5581 5579 5577 5578 5577 5574 5570 5569 5565 5562 5559 5556 5556 5555 5555 5555
5630 5630 5627 5621 5621 5617 5617 5614 5612 5611 5607 5604 5596 5597 5592 5592 5585 5573 5567 5565 5564 5564 5562 5560 5559 5556 5553 5552 5548 5545 5543 5540 5541